sat.trackr.live / text

‹ back to catalog

STARLINK-34868

NORAD 65648 · 2025-210AC

PAYLOAD ACTIVE UNKNOWN

§ Identity

Operator
Country
US
Launch date
2025-09-18
Launch site
AFETR
Launch vehicle
Mass (kg)
RCS (m²)

Purposes: comms

External: N2YO · Heavens-Above · Gunter

§ Orbital elements

Epoch: 2026-05-25T04:19:19.999776Z

Period
93.85 min
Inclination
53.1602°
Eccentricity
0.0000937
Mean motion
15.34416061 rev/d
Perigee alt
462.0 km
Apogee alt
463.3 km
Semi-major
6,840.8 km
B*
1.1363e-3
RAAN
310.9662°
Arg perigee
92.3500°
Mean anomaly
267.7610°
Rev number
3,945

§ Raw data

STARLINK-348681 65648U 25210AC  26145.18009259  .00038232  00000+0  11363-2 0  99942 65648  53.1602 310.9662 0000937  92.3500 267.7610 15.34416061 39454

JSON: /api/v1/satellites/65648 · /tle

For live sub-satellite position, see the globe view (requires WebGL).

§ Visibility from observer

Set your observer location to see the next 7 days of passes ≥ 10°. The values pass through the URL so the page stays shareable.

No JS? Fill the form by hand. The geolocation button needs JavaScript.